❰ Current Conditions

Excessive Heat Watch
EXCESSIVE HEAT WATCH IN EFFECT FROM TUESDAY AFTERNOON THROUGH FRIDAY EVENING

Excessive Heat Watch issued June 16 at 2:25AM EDT until June 21 at 7:00PM EDT by NWS Boston/Norton MA

* WHAT...Dangerously hot conditions with afternoon heat index values up to 105 possible.

* WHERE...In Connecticut, Hartford CT and Tolland CT Counties. In Massachusetts, Central Middlesex MA, Southeast Middlesex MA, Western Norfolk MA, Western Essex MA, Eastern Franklin MA, Eastern Hampden MA, and Eastern Hampshire MA Counties.

* WHEN...From Tuesday afternoon through Friday evening.

* IMPACTS...Heat related illnesses increase significantly during extreme heat and high humidity events.

* ADDITIONAL DETAILS...There will not be much relief during the overnight hours...as Heat Indices will only drop into the 70s.

* PRECAUTIONARY/PREPAREDNESS ACTIONS...Drink plenty of fluids, stay in an air-conditioned room, stay out of the sun, and check up on relatives and neighbors.

Expires: June 16 at 5:00 PM EDT
NWS Regional Weather Roundup - New England Area
REGIONAL WEATHER ROUNDUP
NATIONAL WEATHER SERVICE BOSTON/NORTON MA
1000 AM EDT SUN JUN 16 2024

NOTE:  "FAIR" INDICATES FEW OR NO CLOUDS BELOW 12,000 FEET WITH NO 
SIGNIFICANT WEATHER AND/OR OBSTRUCTIONS TO VISIBILITY.

MAZALL-161500-
EASTERN MASSACHUSETTS
  
CITY           SKY/WX    TMP DP  RH WIND       PRES   REMARKS
BOSTON         MOSUNNY   66  42  41 NE10      30.27F                  
BEVERLY        SUNNY     65  44  46 E7        30.27S                  
LAWRENCE       SUNNY     65  43  44 NE7       30.29F                  
BEDFORD        SUNNY     66  44  45 N6        30.26F                  
NORWOOD        SUNNY     67  46  47 E9        30.27F                  
MARSHFIELD     SUNNY     64  50  59 VRB6      30.27S                  
PLYMOUTH       SUNNY     66  48  52 E9        30.26S                  
TAUNTON        SUNNY     70  44  39 VRB3      30.26S                  
NEW BEDFORD    SUNNY     68  49  50 E7        30.26R                  
$$

MAZALL-161500-
CAPE COD AND THE ISLANDS
  
CITY           SKY/WX    TMP DP  RH WIND       PRES   REMARKS
FALMOUTH       SUNNY     64  48  55 N12       30.28R                  
HYANNIS        SUNNY     65  49  56 N9G20     30.25R                  
CHATHAM        SUNNY     67  49  52 NE10      30.26R                  
PROVINCETOWN   SUNNY     64  53  67 NE10      30.28R                  
NANTUCKET      SUNNY     66  52  60 N13       30.36R                  
MARTHAS VNYRD  SUNNY     68  52  56 N12       30.26R                  
$$
 
MAZALL-161500-
CENTRAL AND WESTERN MASSACHUSETTS
  
CITY           SKY/WX    TMP DP  RH WIND       PRES   REMARKS
WORCESTER      SUNNY     63  40  42 VRB5      30.28S                  
FITCHBURG      SUNNY     67  39  35 VRB3      30.28F                  
ORANGE         SUNNY     64  39  39 CALM      30.28F                  
SPRINGFIELD    SUNNY     66  44  44 CALM      30.25F                  
WESTFIELD      SUNNY     66  45  46 CALM      30.28S                  
NORTH ADAMS    SUNNY     66  43  43 CALM      30.28F                  
PITTSFIELD     SUNNY     63  38  39 E3        30.28S                  
$$
 
RIZALL-161500-
RHODE ISLAND
  
CITY           SKY/WX    TMP DP  RH WIND       PRES   REMARKS
PROVIDENCE     MOSUNNY   66  44  45 VRB3      30.28R                  
NEWPORT        SUNNY     66  45  46 NE5       30.27R                  
BLOCK ISLAND   SUNNY     64  51  62 NE8       30.28R                  
SMITHFIELD     SUNNY     67  43  41 NE7       30.29R                  
WESTERLY       SUNNY     68  44  42 E7        30.27R                  
$$
 
CTZALL-161500-
CONNECTICUT
  
CITY           SKY/WX    TMP DP  RH WIND       PRES   REMARKS
BRADLEY INTL   MOSUNNY   69  45  41 N6        30.28S                  
HARTFORD       MOSUNNY   68  42  38 VRB3      30.27F                  
PLAINVILLE     MOSUNNY   67  41  38 NE7       30.27F                  
BRIDGEPORT     MOSUNNY   68  48  48 E12       30.26F                  
DANBURY        MOSUNNY   68  43  40 VRB7      30.28F                  
GROTON         SUNNY     69  46  43 NE6       30.26S                  
NEW HAVEN      MOSUNNY   71  46  40 VRB7      30.27S                  
CHESTER        MOSUNNY   68  43  40 VRB6      30.28R                  
MERIDEN        MOSUNNY   69  42  37 N7        30.28S                  
WILLIMANTIC    SUNNY     67  42  40 VRB3      30.28F                  
OXFORD         MOSUNNY   65  44  46 N6        30.29S                  
$$

MEZ002-015-021-024-NHZ003-005-008-011-012-014-VTZ005-008-161500-
NORTHERN NEW ENGLAND
  
CITY           SKY/WX    TMP DP  RH WIND       PRES   REMARKS
PORTLAND ME    SUNNY     65  41  41 VRB6      30.26F                  
BANGOR ME      SUNNY     66  39  37 CALM      30.23S                  
CONCORD NH     SUNNY     64  43  46 E5        30.27F                  
MANCHESTER NH  MOSUNNY   66  41  40 SE3       30.26F                  
NASHUA NH      SUNNY     66  43  43 N5        30.28F                  
PORTSMOUTH NH  MOSUNNY   67  42  38 E6        30.26S                  
JAFFREY NH     SUNNY     64  40  41 VRB3      30.28F                  
KEENE NH       SUNNY     63  42  46 W5        30.28F                  
BURLINGTON VT  PTSUNNY   64  44  48 CALM      30.28F                  
MT. WASHINGTON MOSUNNY   41  12  30 VRB1        N/A                   
$$

NYZ052-076-161500-
EASTERN NEW YORK
  
CITY           SKY/WX    TMP DP  RH WIND       PRES   REMARKS
ALBANY         MOSUNNY   66  46  48 CALM      30.29S                  
NEW YORK CITY  PTSUNNY   67  44  43 NE15      30.26S                  
$$
 
ANZALL-161500-
MARINE OBSERVATIONS
  
STATION/POSITION TIME  TEMP    WIND        PRES    VSBY  WAVE
                       AIR SEA DIR/SP/G                  HT/PER
                 (UTC) (F)     (DEG/KT/KT) (MB)    (MI)  (FT/S)
BOSTON BUOY      1350   60 63   20/ 10/ 12 1025.4R         2/ 4
BUZZARDS BAY     1300   61      30/ 11/ 12 1025.0R
NANTUCKET SOUND  1350   65 68   20/  8/ 10 1024.3R         1/ 3
MASS BAY-STELLWA 1204   60 62   10/ 10/ 14 1024.8R  1 7/8  2/ 4
ISLE OF SHOALS   1300   58      30/  6/  7 1024.6R
S OF BLOCK IS    1356      64                N/A           3/ 8
$$

......................KEY.........................
  SKY/WX - SKY CONDITION/PRESENT WEATHER
  TMP    - TEMPERATURE IN FAHRENHEIT
  DWPT   - DEWPOINT IN FAHRENHEIT
  RH     - RELATIVE HUMIDITY IN PERCENT
  WIND   - DIRECTION AND SPEED IN MPH
  PRES   - MEAN SEA LEVEL PRESSURE IN INCHES OF HG
  WCI    - WIND CHILL INDEX
  VSB    - VISIBILITY IN MILES
  HX     - HEAT INDEX
  TC     - TEMPERATURE IN CELSIUS
  VRB    - VARIABLE WIND DIRECTION
  N/A    - NOT AVAILABLE